Forside
METAR-TAF:

METAR-TAF

Lufthavne :

Sparta, Wisconsin, USA

Breddekreds: 43-57-30N, længdekreds: 090-44-16W, højde: 255 m

Aktuelle vejr

Denne rapport blev lavet for 21 minutter siden, kl. 11:15 UTC
Vind 8 kt fra sydsydøst
Temperatur 1°C
Fugtighed 86%
Tryk 1020 hPa
Sigt: 8.0 km
let sne

METAR: KCMY 241115Z AUTO 16008KT 5SM -SN 01/M01 A3013 RMK AO2 T00131009

Tid: 05:36 (11:36 UTC)


TAF: fraværende

Vejrobservationer og prognoser fra mere end 4000 lufthavne (METAR og TAF).

De gule og røde prikker repræsenterer de meteorologiske stationer.

Flyt musen over at se navnet på stationen.

Så klik over at se vejr observationer og prognoser.

At skifte det kort: Klik på de grønne knapper med et sort kors for at zoome ind; på den grønne knap med en bindestreg for at zoome ud; eller på de grønne pile for tilstødende kort.


METAR-TAF: